Terug naar catalogus

STARLINK-35228

ActiefCommunicatieVLEO
NORAD 65517·PAYLOAD·🇺🇸 United States

Gelanceerd Sep 5, 2025 vanaf Cape Canaveral Space Force Station

Loading…

Volgende Passages (komende 24 uur)

TLE

VersSource: CelesTrak SupGP

Epoch: Sep 14, 2026, 22:33 UTC

1 65517C 25198AB  26257.94006944 -.00020671  00000+0 -61081-3 0  2570
2 65517  53.1582 107.5190 0001324  82.3209  59.2966 15.34396172    16

Volg STARLINK-35228 in realtime met AllMySat

Download on the App Store